Regional Weather Roundup
Issued by NWS

Home | Current Version | Previous Version | Text Only | Print | Product List | Glossary Off
Versions: 1 2 3 4 5 6 7 8 9 10 11 12 13 14 15 16 17 18 19 20 21 22 23 24 25 26 27 28 29 30 31 32 33 34 35 36 37 38 39 40 41 42 43 44 45 46 47 48 49 50

983
ASUS43 KOAX 191002
RWRNE

WEATHER ROUNDUP FOR NEBRASKA
NATIONAL WEATHER SERVICE OMAHA NE
500 AM CDT THU OCT 19 2017

NOTES: SATELLITE DATA IS BEING USED TO AUGMENT CLOUD COVER ABOVE
       12000 FEET.
       "FAIR" INDICATES FEW OR NO CLOUDS BELOW 12,000 FEET WITH NO
       SIGNIFICANT WEATHER AND/OR OBSTRUCTIONS TO VISIBILITY.


NEZ001>004-019>022-054>056-191100-
NEBRASKA PANHANDLE

CITY           SKY/WX    TMP DP  RH WIND       PRES   REMARKS
SCOTTSBLUFF    CLOUDY    43  31  62 E12       30.02F
ALLIANCE       CLOUDY    41  32  70 SE10      30.03F
CHADRON        CLOUDY    57  28  33 SW13      29.95F
GORDON         FAIR      47  34  61 SW10      29.99F
SIDNEY         CLOUDY    37  31  78 SW9       30.07F WCI  30
$$

NEZ057>060-069>072-079>082-191100-
SOUTHWEST NEBRASKA

CITY           SKY/WX    TMP DP  RH WIND       PRES   REMARKS
NORTH PLATTE   CLOUDY    34  32  92 NW5       30.06F WCI  30
IMPERIAL       CLOUDY    39  31  72 W5        30.08F
LEXINGTON      CLOUDY    36  32  88 W3        30.06S
MCCOOK         CLOUDY    36  34  92 W5        30.06F WCI  32
OGALLALA       CLOUDY    36  32  87 CALM      30.07F
$$

NEZ005>010-023>029-035>040-094-191100-
NORTH CENTRAL NEBRASKA

CITY           SKY/WX    TMP DP  RH WIND       PRES   REMARKS
VALENTINE      CLOUDY    45  34  65 SW6       30.00F
AINSWORTH      CLOUDY    45  36  71 S9        30.02S
BROKEN BOW     CLOUDY    34  31  88 N3        30.04F
O`NEILL        CLOUDY    39  36  91 S6        30.04F WCI  34
ORD            CLOUDY    34  30  85 N3        30.04F
THEDFORD       CLOUDY    46  34  63 S5        30.05S
$$

NEZ041-046>049-061>064-073>077-083>087-191100-
SOUTH CENTRAL NEBRASKA

CITY           SKY/WX    TMP DP  RH WIND       PRES   REMARKS
GRAND ISLAND   CLOUDY    39  37  92 CALM      30.05S
AURORA         CLOUDY    41  37  84 NW3       30.04S
HASTINGS       CLOUDY    42  36  79 CALM      30.05S
HEBRON         CLEAR     42  40  93 CALM      30.04R
HOLDREGE       CLOUDY    38  34  87 NW3       30.04F
KEARNEY        CLOUDY    40  34  79 NW7       30.05F
YORK           CLOUDY    41  39  93 CALM      30.04R
$$

NEZ011>018-030>034-042>045-191100-
NORTHEAST NEBRASKA

CITY           SKY/WX    TMP DP  RH WIND       PRES   REMARKS
NORFOLK        CLOUDY    37  36  96 CALM      30.05F
ALBION         CLOUDY    36  34  93 NW3       30.06S
BLAIR          CLEAR     48  44  85 NE7       30.05R
COLUMBUS       CLEAR     41  37  86 CALM      30.06R
FREMONT        CLEAR     42  40  93 CALM      30.05S
TEKAMAH        CLOUDY    42  39  89 N5        30.06S
WAYNE          CLOUDY    35  32  90 CALM      30.05F
$$

NEZ050>053-065>068-078-088>093-191100-
SOUTHEAST NEBRASKA

CITY           SKY/WX    TMP DP  RH WIND       PRES   REMARKS
LINCOLN        CLOUDY    46  41  82 N7        30.04S
OMAHA EPPLEY   PTCLDY    44  40  85 NW6       30.05S
BEATRICE       CLEAR     44  42  93 CALM      30.03S
FALLS CITY     CLEAR     46  45  96 SE3       30.03F
NEBRASKA CITY  CLEAR     51  51 100 CALM      30.04S
PLATTSMOUTH    PTCLDY    50  49  96 E5        30.04S
$$

NEZ044-045-051>053-067-191100-
OMAHA AREA

CITY           SKY/WX    TMP DP  RH WIND       PRES   REMARKS
OMAHA EPPLEY   PTCLDY    44  40  85 NW6       30.05S
BLAIR          CLEAR     48  44  85 NE7       30.05R
FREMONT        CLEAR     42  40  93 CALM      30.05S
MILLARD        CLEAR     47  46  95 CALM      30.04S
OFFUTT AFB     CLEAR     42  41  97 CALM      30.04S
PLATTSMOUTH    PTCLDY    50  49  96 E5        30.04S
WAHOO          FAIR      43  40  90 N5        30.04S
$$




USA.gov is the U.S. government's official web portal to all federal, state and local government web resources and services.